CW5917 Weather Reports


Display with metric or nautical units.
time (UTC)temp
F
wind
direction
speed
MPH
gust
MPH
rain 1hr
in
rain 24hr
in
rain mn
in
humidity
%
barometer
mb
20260503200523 68 258 11.0 25.0 0.00 0.02 0.02 44 1005.8
20260503200036 68 207 14.0 28.0 0.00 0.02 0.02 44 1005.9
20260503195550 68 239 17.0 28.0 0.00 0.02 0.02 42 1006.0
20260503195036 68 190 12.0 26.0 0.00 0.02 0.02 44 1006.2
20260503194521 68 223 16.0 26.0 0.00 0.02 0.02 43 1006.2
20260503194024 67 210 13.0 26.0 0.00 0.02 0.02 43 1006.3
20260503193531 67 202 15.0 26.0 0.00 0.02 0.02 44 1006.4
20260503193020 67 223 15.0 27.0 0.00 0.02 0.02 44 1006.5
20260503192552 67 227 18.0 27.0 0.00 0.02 0.02 43 1006.6
20260503192027 68 216 14.0 27.0 0.00 0.02 0.02 43 1006.6
20260503191524 68 236 18.0 27.0 0.00 0.02 0.02 44 1006.5
20260503191029 67 215 16.0 24.0 0.00 0.02 0.02 43 1006.5
20260503190523 67 242 12.0 23.0 0.00 0.02 0.02 44 1006.7
20260503190027 66 269 12.0 29.0 0.00 0.02 0.02 45 1006.7
20260503185517 66 236 17.0 29.0 0.00 0.02 0.02 43 1006.9
20260503185024 67 210 17.0 26.0 0.00 0.02 0.02 43 1007.0
20260503184517 66 226 18.0 26.0 0.00 0.02 0.02 43 1006.7
20260503184020 66 222 16.0 26.0 0.00 0.02 0.02 44 1006.9
20260503183555 66 200 16.0 26.0 0.00 0.02 0.02 44 1006.9
20260503183030 66 225 21.0 27.0 0.00 0.02 0.02 44 1007.0
20260503182542 66 227 13.0 32.0 0.00 0.02 0.02 47 1007.0
20260503182034 65 224 16.0 29.0 0.00 0.02 0.02 46 1007.0
20260503181522 65 215 20.0 29.0 0.00 0.02 0.02 46 1007.0
20260503181032 65 229 19.0 31.0 0.00 0.02 0.02 46 1007.1
20260503180523 65 223 18.0 25.0 0.00 0.02 0.02 49 1007.1
20260503180024 64 205 20.0 30.0 0.00 0.02 0.02 47 1007.3
20260503175557 64 250 17.0 30.0 0.00 0.02 0.02 50 1007.4
20260503175033 63 225 18.0 29.0 0.00 0.02 0.02 50 1007.4
20260503174532 63 226 20.0 29.0 0.00 0.02 0.02 50 1007.6
20260503174027 63 208 19.0 27.0 0.00 0.02 0.02 49 1007.8
20260503173519 63 211 15.0 29.0 0.00 0.02 0.02 50 1007.7
20260503173027 63 212 17.0 29.0 0.00 0.02 0.02 50 1007.7
20260503172520 62 219 17.0 29.0 0.00 0.02 0.02 51 1007.7
20260503172033 62 219 20.0 29.0 0.00 0.02 0.02 49 1007.8
20260503171529 62 204 17.0 29.0 0.00 0.02 0.02 50 1008.0
20260503171023 61 219 22.0 28.0 0.00 0.02 0.02 50 1008.0
20260503170522 61 227 20.0 31.0 0.00 0.02 0.02 49 1008.0
20260503150527 55 187 19.0 28.0 0.01 0.02 0.02 70 1009.4
20260503130548 52 229 12.0 19.0 0.00 0.00 0.00 66 1011.3
20260503110559 48 213 9.0 14.0 0.00 0.00 0.00 57 1011.5
20260503081532 47 217 9.0 16.0 0.00 0.00 0.00 57 1012.5
20260503081023 47 206 9.0 16.0 0.00 0.00 0.00 57 1012.6
20260503080521 47 227 10.0 18.0 0.00 0.00 0.00 57 1012.6
20260503072521 46 221 9.0 14.0 0.00 0.00 0.00 56 1012.8
20260503072018 46 225 9.0 17.0 0.00 0.00 0.00 56 1012.9
20260503071520 46 201 10.0 14.0 0.00 0.00 0.00 56 1013.0
20260503071053 46 217 9.0 14.0 0.00 0.00 0.00 56 1013.0
20260503070525 46 205 10.0 13.0 0.00 0.00 0.00 56 1013.1
20260503055020 47 209 9.0 14.0 0.00 0.00 0.00 54 1013.8
20260503054527 47 210 7.0 14.0 0.00 0.00 0.00 54 1013.8
20260503054042 47 202 10.0 15.0 0.00 0.00 0.00 53 1013.7
20260503053528 47 206 10.0 12.0 0.00 0.00 0.00 53 1013.8
20260503053030 47 215 8.0 12.0 0.00 0.00 0.00 53 1013.7
20260503052525 47 209 7.0 10.0 0.00 0.00 0.00 53 1013.8
20260503052033 47 202 7.0 12.0 0.00 0.00 0.00 53 1013.9
20260503051531 47 211 7.0 11.0 0.00 0.00 0.00 53 1014.0
20260503051024 47 229 7.0 11.0 0.00 0.00 0.00 53 1014.1
20260503050522 47 218 8.0 11.0 0.00 0.00 0.00 53 1014.1
20260503050036 47 217 8.0 11.0 0.00 0.00 0.00 53 1014.0
20260503045521 47 209 7.0 11.0 0.00 0.00 0.00 52 1014.1
20260503045038 47 210 7.0 10.0 0.00 0.00 0.00 52 1014.1
20260503044526 47 202 7.0 10.0 0.00 0.00 0.00 52 1014.1
20260503044022 47 208 8.0 10.0 0.00 0.00 0.00 52 1014.0
20260503043524 47 210 7.0 10.0 0.00 0.00 0.00 51 1014.0
20260503043022 47 220 6.0 10.0 0.00 0.00 0.00 51 1014.0
20260503042533 48 220 7.0 9.0 0.00 0.00 0.00 51 1014.0
20260503042036 48 217 6.0 9.0 0.00 0.00 0.00 51 1014.1
20260503041529 48 209 7.0 10.0 0.00 0.00 0.00 50 1014.1
20260503041025 48 215 6.0 10.0 0.00 0.00 0.00 51 1014.1
20260503040521 48 222 6.0 9.0 0.00 0.00 0.00 50 1014.3
20260503040031 48 214 7.0 9.0 0.00 0.00 0.00 50 1014.4
20260503035535 48 240 6.0 9.0 0.00 0.00 0.00 49 1014.4
20260503035037 48 199 6.0 10.0 0.00 0.00 0.00 49 1014.4
20260503034533 48 225 7.0 10.0 0.00 0.00 0.00 49 1014.4
20260503034024 48 226 6.0 9.0 0.00 0.00 0.00 49 1014.4
20260503033541 49 199 5.0 7.0 0.00 0.00 0.00 49 1014.5
20260503033043 49 212 5.0 10.0 0.00 0.00 0.00 48 1014.5
20260503032537 49 216 6.0 10.0 0.00 0.00 0.00 48 1014.5
20260503032031 49 221 6.0 9.0 0.00 0.00 0.00 48 1014.5
20260503031521 49 212 7.0 9.0 0.00 0.00 0.00 48 1014.6
20260503031051 49 220 6.0 8.0 0.00 0.00 0.00 48 1014.6
20260503030525 49 202 5.0 8.0 0.00 0.00 0.00 48 1014.7
20260503030019 49 207 5.0 8.0 0.00 0.00 0.00 48 1014.7
20260503025536 49 208 6.0 8.0 0.00 0.00 0.00 47 1014.7
20260503025020 49 214 5.0 8.0 0.00 0.00 0.00 47 1014.7
20260503024552 49 213 5.0 8.0 0.00 0.00 0.00 47 1014.7
20260503024019 49 225 5.0 7.0 0.00 0.00 0.00 46 1014.8
20260503023559 49 212 4.0 6.0 0.00 0.00 0.00 46 1014.8
20260503023037 50 212 4.0 6.0 0.00 0.00 0.00 46 1014.7
20260503022553 50 212 4.0 6.0 0.00 0.00 0.00 45 1014.7
20260503021539 50 212 4.0 6.0 0.00 0.00 0.00 45 1014.8
20260503021034 51 227 4.0 5.0 0.00 0.00 0.00 44 1014.7
20260503020532 51 227 4.0 5.0 0.00 0.00 0.00 44 1014.7
20260503020022 51 227 3.0 5.0 0.00 0.00 0.00 43 1014.7
20260503015537 52 227 3.0 5.0 0.00 0.00 0.00 42 1014.7
20260503015018 52 227 4.0 5.0 0.00 0.00 0.00 42 1014.7
20260503014537 52 227 4.0 5.0 0.00 0.00 0.00 42 1014.7
20260503014032 52 227 4.0 5.0 0.00 0.00 0.00 41 1014.6
20260503013536 53 230 4.0 5.0 0.00 0.00 0.00 41 1014.6
20260503013020 53 232 4.0 6.0 0.00 0.00 0.00 41 1014.6
20260503012535 53 233 4.0 6.0 0.00 0.00 0.00 40 1014.6
20260503012037 54 234 4.0 6.0 0.00 0.00 0.00 40 1014.6
20260503011536 54 225 4.0 6.0 0.00 0.00 0.00 40 1014.5
20260503011028 54 223 4.0 8.0 0.00 0.00 0.00 39 1014.5
20260503010523 54 243 4.0 7.0 0.00 0.00 0.00 39 1014.5
20260503010031 55 229 5.0 7.0 0.00 0.00 0.00 39 1014.6
20260503005524 55 239 4.0 7.0 0.00 0.00 0.00 39 1014.5
20260503005034 55 238 4.0 8.0 0.00 0.00 0.00 38 1014.6
20260503004537 55 263 5.0 10.0 0.00 0.00 0.00 38 1014.6
20260503004032 55 232 7.0 10.0 0.00 0.00 0.00 38 1014.7
20260503003536 56 245 5.0 10.0 0.00 0.00 0.00 38 1014.6
20260503003033 56 238 6.0 10.0 0.00 0.00 0.00 38 1014.6
20260503002535 56 238 8.0 12.0 0.00 0.00 0.00 37 1014.7
20260503002018 56 257 8.0 14.0 0.00 0.00 0.00 37 1014.7
20260503001534 57 234 8.0 12.0 0.00 0.00 0.00 36 1014.7
20260503001057 57 278 9.0 15.0 0.00 0.00 0.00 36 1014.9
20260503000524 57 243 6.0 14.0 0.00 0.00 0.00 36 1014.9
20260503000018 57 254 9.0 14.0 0.00 0.00 0.00 36 1015.0
20260502235559 58 236 8.0 13.0 0.00 0.00 0.00 35 1014.9
20260502235030 58 250 5.0 12.0 0.00 0.00 0.00 36 1015.6
20260502234521 58 298 6.0 18.0 0.00 0.00 0.00 35 1015.0
20260502234053 58 275 12.0 18.0 0.00 0.00 0.00 34 1014.9
20260502233518 58 218 7.0 13.0 0.00 0.00 0.00 35 1014.9
20260502233019 58 297 8.0 14.0 0.00 0.00 0.00 34 1015.0
20260502232536 58 292 7.0 15.0 0.00 0.00 0.00 33 1015.0
20260502232031 59 250 10.0 20.0 0.00 0.00 0.00 33 1015.0
20260502231531 59 305 8.0 17.0 0.00 0.00 0.00 35 1015.0
20260502231042 59 240 8.0 16.0 0.00 0.00 0.00 34 1015.1
20260502230518 59 249 11.0 14.0 0.00 0.00 0.00 34 1015.1
20260502230021 59 219 9.0 13.0 0.00 0.00 0.00 34 1015.1
20260502225520 59 235 8.0 15.0 0.00 0.00 0.00 34 1015.2
20260502225037 59 295 7.0 16.0 0.00 0.00 0.00 34 1015.2
20260502224553 59 279 8.0 15.0 0.00 0.00 0.00 34 1015.2
20260502224038 59 238 7.0 15.0 0.00 0.00 0.00 35 1015.2
20260502223532 59 218 10.0 16.0 0.00 0.00 0.00 34 1015.2
20260502223050 59 259 8.0 13.0 0.00 0.00 0.00 36 1015.3
20260502222523 59 220 6.0 15.0 0.00 0.00 0.00 35 1015.5
20260502222019 59 284 9.0 20.0 0.00 0.00 0.00 33 1015.4
20260502221546 60 217 12.0 21.0 0.00 0.00 0.00 33 1015.6
20260502221023 60 254 14.0 21.0 0.00 0.00 0.00 34 1015.6
20260502220535 59 243 9.0 17.0 0.00 0.00 0.00 37 1015.6
20260502220041 58 269 11.0 18.0 0.00 0.00 0.00 34 1015.7
20260502215529 58 315 11.0 18.0 0.00 0.00 0.00 33 1015.7
20260502215056 58 300 9.0 17.0 0.00 0.00 0.00 33 1015.8
20260502214532 59 323 11.0 17.0 0.00 0.00 0.00 33 1015.9
20260502214050 59 248 9.0 15.0 0.00 0.00 0.00 36 1015.9
20260502213538 59 290 9.0 16.0 0.00 0.00 0.00 34 1015.8
20260502213021 59 237 11.0 20.0 0.00 0.00 0.00 35 1015.9
20260502212535 59 294 10.0 20.0 0.00 0.00 0.00 34 1015.9
20260502212037 59 258 9.0 17.0 0.00 0.00 0.00 35 1015.9
20260502211556 59 262 11.0 18.0 0.00 0.00 0.00 34 1016.0
20260502211032 59 308 8.0 17.0 0.00 0.00 0.00 37 1016.0
20260502210543 58 270 11.0 17.0 0.00 0.00 0.00 36 1016.1
20260502210044 58 325 8.0 14.0 0.00 0.00 0.00 35 1016.1
20260502205519 59 222 7.0 14.0 0.00 0.00 0.00 35 1016.1
20260502205101 59 309 8.0 14.0 0.00 0.00 0.00 37 1016.3
20260502204523 59 296 8.0 14.0 0.00 0.00 0.00 35 1016.3
20260502204021 59 279 9.0 14.0 0.00 0.00 0.00 35 1016.3
20260502203536 59 259 10.0 15.0 0.00 0.00 0.00 35 1016.4
20260502203024 59 271 11.0 17.0 0.00 0.00 0.00 35 1016.5
20260502202519 59 287 9.0 17.0 0.00 0.00 0.00 37 1016.6
20260502202022 57 267 9.0 17.0 0.00 0.00 0.00 36 1016.7
20260502201536 57 300 4.0 15.0 0.00 0.00 0.00 36 1016.8
20260502201033 57 260 9.0 15.0 0.00 0.00 0.00 37 1016.8